This is the latest recevied weather packets stored in our database for station/object WA0GMH-1. If no packets are shown the sender has not sent any weather packets the latest 10 day(s).
| Time | Temp. | Humidity | Pressure | Rain* | Wind** | Luminosity | Snow |
|---|---|---|---|---|---|---|---|
| 1777474604 | 8.33° C | 86% | 1020.2 hPa | 0 mm | - | - | - |
| 1777474201 | 8.33° C | 87% | 1020.3 hPa | 0 mm | - | - | - |
| 1777473391 | 7.78° C | 91% | 1020.4 hPa | 0 mm | - | - | - |
| 1777472990 | 7.22° C | 93% | 1020.3 hPa | 0 mm | - | - | - |
| 1777472587 | 7.22° C | 94% | 1020.2 hPa | 0 mm | - | - | - |
| 1777472185 | 6.67° C | 95% | 1020.2 hPa | 0 mm | - | - | - |
| 1777471782 | 6.67° C | 96% | 1020.4 hPa | 0 mm | - | - | - |
| 1777471381 | 6.11° C | 95% | 1020.2 hPa | 0 mm | - | - | - |
| 1777470978 | 6.11° C | 95% | 1020.3 hPa | 0 mm | - | - | - |
| 1777470576 | 5.56° C | 97% | 1020.2 hPa | 0 mm | - | - | - |
| 1777470173 | 5° C | 97% | 1020 hPa | 0 mm | - | - | - |
| 1777469772 | 5° C | 92% | 1020.1 hPa | 0 mm | - | - | - |
| 1777469369 | 4.44° C | 92% | 1020.5 hPa | 0 mm | - | - | - |
| 1777468564 | 3.89° C | 90% | 1020.1 hPa | 0 mm | - | - | - |
| 1777468163 | 3.89° C | 90% | 1020 hPa | 0 mm | - | - | - |
| 1777467760 | 3.33° C | 90% | 1019.9 hPa | 0 mm | - | - | - |
| 1777467358 | 2.78° C | 88% | 1019.9 hPa | 0 mm | - | - | - |
| 1777466955 | 2.78° C | 88% | 1020 hPa | 0 mm | - | - | - |
| 1777466554 | 2.78° C | 88% | 1019.8 hPa | 0 mm | - | - | - |
| 1777466151 | 2.22° C | 87% | 1019.9 hPa | 0 mm | - | - | - |
| 1777465749 | 2.22° C | 87% | 1019.8 hPa | 0 mm | - | - | - |
| 1777465346 | 2.22° C | 86% | 1019.9 hPa | 0 mm | - | - | - |
| 1777464945 | 2.22° C | 86% | 1019.9 hPa | 0 mm | - | - | - |
| 1777464542 | 2.22° C | 85% | 1020 hPa | 0 mm | - | - | - |
| 1777464140 | 2.22° C | 84% | 1019.8 hPa | 0 mm | - | - | - |
* Rain since midnight (hover to see other rain measurements)
** Current wind speed in m/s (hover to see current wind gust speed)